Year,Month,Day,Hour,Minute,Value (Times are PST for temperature in C)
2008,08,05,00,00,16.70
2008,08,05,00,01,16.70
2008,08,05,00,02,16.70
2008,08,05,00,03,16.70
2008,08,05,00,04,16.70
2008,08,05,00,05,16.70
2008,08,05,00,06,16.70
2008,08,05,00,07,16.60
2008,08,05,00,08,16.60
2008,08,05,00,09,16.60
2008,08,05,00,10,16.50
2008,08,05,00,11,16.40
2008,08,05,00,12,16.40
2008,08,05,00,13,16.40
2008,08,05,00,14,16.40
2008,08,05,00,15,16.40
2008,08,05,00,16,16.40
2008,08,05,00,17,16.40
2008,08,05,00,18,16.40
2008,08,05,00,19,16.30
2008,08,05,00,20,16.30
2008,08,05,00,21,16.30
2008,08,05,00,22,16.30
2008,08,05,00,23,16.30
2008,08,05,00,24,16.30
2008,08,05,00,25,16.20
2008,08,05,00,26,16.20
2008,08,05,00,27,16.20
2008,08,05,00,28,16.20
2008,08,05,00,29,16.10
2008,08,05,00,30,16.10
2008,08,05,00,31,16.10
2008,08,05,00,32,16.10
2008,08,05,00,33,16.10
2008,08,05,00,34,16.10
2008,08,05,00,35,16.10
2008,08,05,00,36,16.00
2008,08,05,00,37,15.90
2008,08,05,00,38,15.90
2008,08,05,00,39,15.90
2008,08,05,00,40,15.90
2008,08,05,00,41,15.90
2008,08,05,00,42,15.90
2008,08,05,00,43,15.80
2008,08,05,00,44,15.80
2008,08,05,00,45,15.80
2008,08,05,00,46,15.80
2008,08,05,00,47,15.80
2008,08,05,00,48,15.80
2008,08,05,00,49,15.80
2008,08,05,00,50,15.80
2008,08,05,00,51,15.80
2008,08,05,00,52,15.80
2008,08,05,00,53,15.70
2008,08,05,00,54,15.70
2008,08,05,00,55,15.70
2008,08,05,00,56,15.70
2008,08,05,00,57,15.60
2008,08,05,00,58,15.60
2008,08,05,00,59,15.60
2008,08,05,01,00,15.50
2008,08,05,01,01,15.50
2008,08,05,01,02,15.50
2008,08,05,01,03,15.50
2008,08,05,01,04,15.50
2008,08,05,01,05,15.40
2008,08,05,01,06,15.40
2008,08,05,01,07,15.40
2008,08,05,01,08,15.40
2008,08,05,01,09,15.30
2008,08,05,01,10,15.30
2008,08,05,01,11,15.30
2008,08,05,01,12,15.30
2008,08,05,01,13,15.30
2008,08,05,01,14,15.30
2008,08,05,01,15,15.30
2008,08,05,01,16,15.20
2008,08,05,01,17,15.20
2008,08,05,01,18,15.20
2008,08,05,01,19,15.10
2008,08,05,01,20,15.10
2008,08,05,01,21,15.10
2008,08,05,01,22,15.10
2008,08,05,01,23,15.10
2008,08,05,01,24,15.10
2008,08,05,01,25,15.00
2008,08,05,01,26,15.00
2008,08,05,01,27,15.00
2008,08,05,01,28,15.00
2008,08,05,01,29,15.00
2008,08,05,01,30,15.00
2008,08,05,01,31,15.00
2008,08,05,01,32,14.90
2008,08,05,01,33,14.90
2008,08,05,01,34,14.90
2008,08,05,01,35,14.90
2008,08,05,01,36,14.90
2008,08,05,01,37,14.90
2008,08,05,01,38,14.90
2008,08,05,01,39,14.80
2008,08,05,01,40,14.80
2008,08,05,01,41,14.80
2008,08,05,01,42,14.80
2008,08,05,01,43,14.80
2008,08,05,01,44,14.80
2008,08,05,01,45,14.80
2008,08,05,01,46,14.80
2008,08,05,01,47,14.80
2008,08,05,01,48,14.80
2008,08,05,01,49,14.80
2008,08,05,01,50,14.80
2008,08,05,01,51,14.80
2008,08,05,01,52,14.80
2008,08,05,01,53,14.80
2008,08,05,01,54,14.80
2008,08,05,01,55,14.80
2008,08,05,01,56,14.80
2008,08,05,01,57,14.80
2008,08,05,01,58,14.70
2008,08,05,01,59,14.70
2008,08,05,02,00,14.70
2008,08,05,02,01,14.70
2008,08,05,02,02,14.70
2008,08,05,02,03,14.70
2008,08,05,02,04,14.70
2008,08,05,02,05,14.70
2008,08,05,02,06,14.70
2008,08,05,02,07,14.60
2008,08,05,02,08,14.60
2008,08,05,02,09,14.60
2008,08,05,02,10,14.60
2008,08,05,02,11,14.60
2008,08,05,02,12,14.50
2008,08,05,02,13,14.50
2008,08,05,02,14,14.50
2008,08,05,02,15,14.50
2008,08,05,02,16,14.50
2008,08,05,02,17,14.50
2008,08,05,02,18,14.40
2008,08,05,02,19,14.40
2008,08,05,02,20,14.40
2008,08,05,02,21,14.40
2008,08,05,02,22,14.40
2008,08,05,02,23,14.40
2008,08,05,02,24,14.40
2008,08,05,02,25,14.30
2008,08,05,02,26,14.30
2008,08,05,02,27,14.30
2008,08,05,02,28,14.30
2008,08,05,02,29,14.30
2008,08,05,02,30,14.30
2008,08,05,02,31,14.20
2008,08,05,02,32,14.20
2008,08,05,02,33,14.20
2008,08,05,02,34,14.20
2008,08,05,02,35,14.20
2008,08,05,02,36,14.20
2008,08,05,02,37,14.20
2008,08,05,02,38,14.20
2008,08,05,02,39,14.20
2008,08,05,02,40,14.20
2008,08,05,02,41,14.20
2008,08,05,02,42,14.20
2008,08,05,02,43,14.10
2008,08,05,02,44,14.10
2008,08,05,02,45,14.10
2008,08,05,02,46,14.10
2008,08,05,02,47,14.10
2008,08,05,02,48,14.10
2008,08,05,02,49,14.00
2008,08,05,02,50,14.00
2008,08,05,02,51,14.00
2008,08,05,02,52,14.00
2008,08,05,02,53,14.00
2008,08,05,02,54,14.00
2008,08,05,02,55,14.00
2008,08,05,02,56,14.00
2008,08,05,02,57,13.90
2008,08,05,02,58,13.90
2008,08,05,02,59,13.90
2008,08,05,03,00,13.90
2008,08,05,03,01,13.90
2008,08,05,03,02,13.90
2008,08,05,03,03,13.90
2008,08,05,03,04,13.80
2008,08,05,03,05,13.80
2008,08,05,03,06,13.80
2008,08,05,03,07,13.80
2008,08,05,03,08,13.80
2008,08,05,03,09,13.80
2008,08,05,03,10,13.80
2008,08,05,03,11,13.80
2008,08,05,03,12,13.80
2008,08,05,03,13,13.80
2008,08,05,03,14,13.80
2008,08,05,03,15,13.80
2008,08,05,03,16,13.80
2008,08,05,03,17,13.80
2008,08,05,03,18,13.80
2008,08,05,03,19,13.70
2008,08,05,03,20,13.70
2008,08,05,03,21,13.70
2008,08,05,03,22,13.70
2008,08,05,03,23,13.70
2008,08,05,03,24,13.70
2008,08,05,03,25,13.70
2008,08,05,03,26,13.70
2008,08,05,03,27,13.70
2008,08,05,03,28,13.60
2008,08,05,03,29,13.60
2008,08,05,03,30,13.60
2008,08,05,03,31,13.60
2008,08,05,03,32,13.60
2008,08,05,03,33,13.50
2008,08,05,03,34,13.50
2008,08,05,03,35,13.50
2008,08,05,03,36,13.50
2008,08,05,03,37,13.50
2008,08,05,03,38,13.40
2008,08,05,03,39,13.40
2008,08,05,03,40,13.40
2008,08,05,03,41,13.40
2008,08,05,03,42,13.40
2008,08,05,03,43,13.30
2008,08,05,03,44,13.30
2008,08,05,03,45,13.30
2008,08,05,03,46,13.30
2008,08,05,03,47,13.30
2008,08,05,03,48,13.30
2008,08,05,03,49,13.30
2008,08,05,03,50,13.30
2008,08,05,03,51,13.30
2008,08,05,03,52,13.20
2008,08,05,03,53,13.20
2008,08,05,03,54,13.20
2008,08,05,03,55,13.20
2008,08,05,03,56,13.20
2008,08,05,03,57,13.10
2008,08,05,03,58,13.10
2008,08,05,03,59,13.10
2008,08,05,04,00,13.10
2008,08,05,04,01,13.10
2008,08,05,04,02,13.10
2008,08,05,04,03,13.00
2008,08,05,04,04,13.00
2008,08,05,04,05,13.00
2008,08,05,04,06,13.00
2008,08,05,04,07,13.00
2008,08,05,04,08,13.00
2008,08,05,04,09,13.00
2008,08,05,04,10,13.00
2008,08,05,04,11,13.00
2008,08,05,04,12,12.90
2008,08,05,04,13,12.90
2008,08,05,04,14,12.90
2008,08,05,04,15,12.90
2008,08,05,04,16,12.90
2008,08,05,04,17,12.90
2008,08,05,04,18,13.00
2008,08,05,04,19,13.00
2008,08,05,04,20,13.00
2008,08,05,04,21,12.90
2008,08,05,04,22,12.90
2008,08,05,04,23,12.90
2008,08,05,04,24,12.90
2008,08,05,04,25,12.90
2008,08,05,04,26,12.90
2008,08,05,04,27,12.90
2008,08,05,04,28,12.80
2008,08,05,04,29,12.90
2008,08,05,04,30,12.90
2008,08,05,04,31,12.90
2008,08,05,04,32,12.90
2008,08,05,04,33,12.90
2008,08,05,04,34,12.90
2008,08,05,04,35,12.90
2008,08,05,04,36,12.90
2008,08,05,04,37,12.90
2008,08,05,04,38,12.90
2008,08,05,04,39,12.90
2008,08,05,04,40,12.90
2008,08,05,04,41,12.90
2008,08,05,04,42,12.90
2008,08,05,04,43,12.90
2008,08,05,04,44,12.90
2008,08,05,04,45,12.90
2008,08,05,04,46,12.80
2008,08,05,04,47,12.80
2008,08,05,04,48,12.80
2008,08,05,04,49,12.80
2008,08,05,04,50,12.80
2008,08,05,04,51,12.80
2008,08,05,04,52,12.80
2008,08,05,04,53,12.80
2008,08,05,04,54,12.80
2008,08,05,04,55,12.80
2008,08,05,04,56,12.80
2008,08,05,04,57,12.80
2008,08,05,04,58,12.80
2008,08,05,04,59,12.80
2008,08,05,05,00,12.70
2008,08,05,05,01,12.70
2008,08,05,05,02,12.70
2008,08,05,05,03,12.70
2008,08,05,05,04,12.60
2008,08,05,05,05,12.60
2008,08,05,05,06,12.60
2008,08,05,05,07,12.60
2008,08,05,05,08,12.60
2008,08,05,05,09,12.50
2008,08,05,05,10,12.50
2008,08,05,05,11,12.50
2008,08,05,05,12,12.50
2008,08,05,05,13,12.40
2008,08,05,05,14,12.40
2008,08,05,05,15,12.40
2008,08,05,05,16,12.40
2008,08,05,05,17,12.40
2008,08,05,05,18,12.40
2008,08,05,05,19,12.30
2008,08,05,05,20,12.30
2008,08,05,05,21,12.30
2008,08,05,05,22,12.30
2008,08,05,05,23,12.30
2008,08,05,05,24,12.30
2008,08,05,05,25,12.30
2008,08,05,05,26,12.30
2008,08,05,05,27,12.30
2008,08,05,05,28,12.30
2008,08,05,05,29,12.30
2008,08,05,05,30,12.30
2008,08,05,05,31,12.20
2008,08,05,05,32,12.20
2008,08,05,05,33,12.20
2008,08,05,05,34,12.20
2008,08,05,05,35,12.20
2008,08,05,05,36,12.20
2008,08,05,05,37,12.20
2008,08,05,05,38,12.20
2008,08,05,05,39,12.10
2008,08,05,05,40,12.10
2008,08,05,05,41,12.10
2008,08,05,05,42,12.10
2008,08,05,05,43,12.10
2008,08,05,05,44,12.10
2008,08,05,05,45,12.10
2008,08,05,05,46,12.10
2008,08,05,05,47,12.10
2008,08,05,05,48,12.10
2008,08,05,05,49,12.00
2008,08,05,05,50,12.00
2008,08,05,05,51,12.00
2008,08,05,05,52,12.00
2008,08,05,05,53,12.00
2008,08,05,05,54,12.00
2008,08,05,05,55,11.90
2008,08,05,05,56,11.90
2008,08,05,05,57,11.90
2008,08,05,05,58,11.90
2008,08,05,05,59,11.90
2008,08,05,06,00,11.90
2008,08,05,06,01,11.90
2008,08,05,06,02,11.90
2008,08,05,06,03,11.90
2008,08,05,06,04,11.80
2008,08,05,06,05,11.80
2008,08,05,06,06,11.80
2008,08,05,06,07,11.80
2008,08,05,06,08,11.80
2008,08,05,06,09,11.80
2008,08,05,06,10,11.80
2008,08,05,06,11,11.80
2008,08,05,06,12,11.80
2008,08,05,06,13,11.80
2008,08,05,06,14,11.80
2008,08,05,06,15,11.80
2008,08,05,06,16,11.80
2008,08,05,06,17,11.70
2008,08,05,06,18,11.70
2008,08,05,06,19,11.70
2008,08,05,06,20,11.70
2008,08,05,06,21,11.70
2008,08,05,06,22,11.70
2008,08,05,06,23,11.70
2008,08,05,06,24,11.70
2008,08,05,06,25,11.70
2008,08,05,06,26,11.80
2008,08,05,06,27,11.80
2008,08,05,06,28,11.80
2008,08,05,06,29,11.80
2008,08,05,06,30,11.80
2008,08,05,06,31,11.80
2008,08,05,06,32,11.90
2008,08,05,06,33,11.90
2008,08,05,06,34,12.00
2008,08,05,06,35,12.00
2008,08,05,06,36,12.10
2008,08,05,06,37,12.10
2008,08,05,06,38,12.20
2008,08,05,06,39,12.30
2008,08,05,06,40,12.30
2008,08,05,06,41,12.30
2008,08,05,06,42,12.40
2008,08,05,06,43,12.40
2008,08,05,06,44,12.50
2008,08,05,06,45,12.50
2008,08,05,06,46,12.50
2008,08,05,06,47,12.50
2008,08,05,06,48,12.60
2008,08,05,06,49,12.60
2008,08,05,06,50,12.70
2008,08,05,06,51,12.70
2008,08,05,06,52,12.80
2008,08,05,06,53,12.80
2008,08,05,06,54,12.90
2008,08,05,06,55,12.90
2008,08,05,06,56,13.00
2008,08,05,06,57,13.00
2008,08,05,06,58,13.00
2008,08,05,06,59,13.10
2008,08,05,07,00,13.10
2008,08,05,07,01,13.20
2008,08,05,07,02,13.20
2008,08,05,07,03,13.20
2008,08,05,07,04,13.30
2008,08,05,07,05,13.30
2008,08,05,07,06,13.30
2008,08,05,07,07,13.40
2008,08,05,07,08,13.50
2008,08,05,07,09,13.50
2008,08,05,07,10,13.60
2008,08,05,07,11,13.70
2008,08,05,07,12,13.80
2008,08,05,07,13,13.90
2008,08,05,07,14,14.00
2008,08,05,07,15,14.20
2008,08,05,07,16,14.30
2008,08,05,07,17,14.50
2008,08,05,07,18,14.60
2008,08,05,07,19,14.70
2008,08,05,07,20,14.80
2008,08,05,07,21,15.00
2008,08,05,07,22,15.00
2008,08,05,07,23,15.10
2008,08,05,07,24,15.30
2008,08,05,07,25,15.30
2008,08,05,07,26,15.50
2008,08,05,07,27,15.50
2008,08,05,07,28,15.60
2008,08,05,07,29,15.70
2008,08,05,07,30,15.80
2008,08,05,07,31,15.90
2008,08,05,07,32,16.00
2008,08,05,07,33,16.10
2008,08,05,07,34,16.20
2008,08,05,07,35,16.30
2008,08,05,07,36,16.30
2008,08,05,07,37,16.40
2008,08,05,07,38,16.50
2008,08,05,07,39,16.60
2008,08,05,07,40,16.70
2008,08,05,07,41,16.70
2008,08,05,07,42,16.80
2008,08,05,07,43,16.90
2008,08,05,07,44,16.90
2008,08,05,07,45,16.90
2008,08,05,07,46,16.90
2008,08,05,07,47,17.00
2008,08,05,07,48,17.00
2008,08,05,07,49,17.00
2008,08,05,07,50,17.10
2008,08,05,07,51,17.10
2008,08,05,07,52,17.20
2008,08,05,07,53,17.30
2008,08,05,07,54,17.40
2008,08,05,07,55,17.50
2008,08,05,07,56,17.60
2008,08,05,07,57,17.70
2008,08,05,07,58,17.70
2008,08,05,07,59,17.80
2008,08,05,08,00,17.90
2008,08,05,08,01,17.90
2008,08,05,08,02,18.00
2008,08,05,08,03,18.10
2008,08,05,08,04,18.20
2008,08,05,08,05,18.30
2008,08,05,08,06,18.40
2008,08,05,08,07,18.50
2008,08,05,08,08,18.50
2008,08,05,08,09,18.60
2008,08,05,08,10,18.70
2008,08,05,08,11,18.70
2008,08,05,08,12,18.80
2008,08,05,08,13,18.90
2008,08,05,08,14,18.90
2008,08,05,08,15,19.10
2008,08,05,08,16,19.10
2008,08,05,08,17,19.10
2008,08,05,08,18,19.20
2008,08,05,08,19,19.30
2008,08,05,08,20,19.30
2008,08,05,08,21,19.40
2008,08,05,08,22,19.40
2008,08,05,08,23,19.40
2008,08,05,08,24,19.40
2008,08,05,08,25,19.40
2008,08,05,08,26,19.50
2008,08,05,08,27,19.50
2008,08,05,08,28,19.60
2008,08,05,08,29,19.60
2008,08,05,08,30,19.70
2008,08,05,08,31,19.80
2008,08,05,08,32,19.90
2008,08,05,08,33,19.90
2008,08,05,08,34,19.90
2008,08,05,08,35,20.10
2008,08,05,08,36,20.10
2008,08,05,08,37,20.20
2008,08,05,08,38,20.20
2008,08,05,08,39,20.40
2008,08,05,08,40,20.50
2008,08,05,08,41,20.60
2008,08,05,08,42,20.70
2008,08,05,08,43,20.80
2008,08,05,08,44,20.90
2008,08,05,08,45,21.00
2008,08,05,08,46,21.10
2008,08,05,08,47,21.20
2008,08,05,08,48,21.30
2008,08,05,08,49,21.30
2008,08,05,08,50,21.40
2008,08,05,08,51,21.60
2008,08,05,08,52,21.60
2008,08,05,08,53,21.60
2008,08,05,08,54,21.70
2008,08,05,08,55,21.70
2008,08,05,08,56,21.70
2008,08,05,08,57,21.70
2008,08,05,08,58,21.80
2008,08,05,08,59,21.80
2008,08,05,09,00,21.80
2008,08,05,09,01,21.90
2008,08,05,09,02,21.90
2008,08,05,09,03,22.00
2008,08,05,09,04,22.10
2008,08,05,09,05,22.10
2008,08,05,09,06,22.10
2008,08,05,09,07,22.10
2008,08,05,09,08,22.10
2008,08,05,09,09,22.10
2008,08,05,09,10,22.10
2008,08,05,09,11,22.20
2008,08,05,09,12,22.30
2008,08,05,09,13,22.40
2008,08,05,09,14,22.50
2008,08,05,09,15,22.60
2008,08,05,09,16,22.70
2008,08,05,09,17,22.80
2008,08,05,09,18,22.90
2008,08,05,09,19,22.90
2008,08,05,09,20,22.90
2008,08,05,09,21,22.90
2008,08,05,09,22,22.90
2008,08,05,09,23,22.70
2008,08,05,09,24,22.60
2008,08,05,09,25,22.50
2008,08,05,09,26,22.40
2008,08,05,09,27,22.40
2008,08,05,09,28,22.20
2008,08,05,09,29,22.00
2008,08,05,09,30,21.80
2008,08,05,09,31,21.60
2008,08,05,09,32,21.60
2008,08,05,09,33,21.60
2008,08,05,09,34,21.70
2008,08,05,09,35,21.80
2008,08,05,09,36,21.90
2008,08,05,09,37,21.90
2008,08,05,09,38,21.90
2008,08,05,09,39,22.00
2008,08,05,09,40,22.10
2008,08,05,09,41,22.10
2008,08,05,09,42,22.20
2008,08,05,09,43,22.20
2008,08,05,09,44,22.30
2008,08,05,09,45,22.30
2008,08,05,09,46,22.20
2008,08,05,09,47,22.20
2008,08,05,09,48,22.30
2008,08,05,09,49,22.40
2008,08,05,09,50,22.50
2008,08,05,09,51,22.60
2008,08,05,09,52,22.70
2008,08,05,09,53,22.80
2008,08,05,09,54,22.90
2008,08,05,09,55,22.90
2008,08,05,09,56,23.00
2008,08,05,09,57,23.10
2008,08,05,09,58,23.20
2008,08,05,09,59,23.30
2008,08,05,10,00,23.30
2008,08,05,10,01,23.30
2008,08,05,10,02,23.30
2008,08,05,10,03,23.30
2008,08,05,10,04,23.30
2008,08,05,10,05,23.40
2008,08,05,10,06,23.40
2008,08,05,10,07,23.60
2008,08,05,10,08,23.60
2008,08,05,10,09,23.40
2008,08,05,10,10,23.00
2008,08,05,10,11,22.70
2008,08,05,10,12,22.50
2008,08,05,10,13,22.20
2008,08,05,10,14,22.00
2008,08,05,10,15,21.90
2008,08,05,10,16,21.80
2008,08,05,10,17,21.70
2008,08,05,10,18,21.60
2008,08,05,10,19,21.70
2008,08,05,10,20,21.80
2008,08,05,10,21,21.80
2008,08,05,10,22,21.80
2008,08,05,10,23,21.80
2008,08,05,10,24,21.90
2008,08,05,10,25,21.90
2008,08,05,10,26,22.00
2008,08,05,10,27,22.20
2008,08,05,10,28,22.40
2008,08,05,10,29,22.60
2008,08,05,10,30,22.80
2008,08,05,10,31,22.90
2008,08,05,10,32,23.00
2008,08,05,10,33,23.10
2008,08,05,10,34,23.20
2008,08,05,10,35,23.30
2008,08,05,10,36,23.50
2008,08,05,10,37,23.70
2008,08,05,10,38,23.60
2008,08,05,10,39,23.50
2008,08,05,10,40,23.60
2008,08,05,10,41,23.50
2008,08,05,10,42,23.40
2008,08,05,10,43,23.20
2008,08,05,10,44,22.90
2008,08,05,10,45,22.80
2008,08,05,10,46,22.50
2008,08,05,10,47,22.30
2008,08,05,10,48,22.10
2008,08,05,10,49,22.10
2008,08,05,10,50,22.20
2008,08,05,10,51,22.30
2008,08,05,10,52,22.40
2008,08,05,10,53,22.30
2008,08,05,10,54,22.30
2008,08,05,10,55,22.40
2008,08,05,10,56,22.30
2008,08,05,10,57,22.30
2008,08,05,10,58,22.30
2008,08,05,10,59,22.30
2008,08,05,11,00,22.40
2008,08,05,11,01,22.60
2008,08,05,11,02,22.70
2008,08,05,11,03,22.90
2008,08,05,11,04,22.90
2008,08,05,11,05,22.90
2008,08,05,11,06,23.00
2008,08,05,11,07,23.20
2008,08,05,11,08,23.30
2008,08,05,11,09,23.60
2008,08,05,11,10,23.70
2008,08,05,11,11,23.70
2008,08,05,11,12,23.70
2008,08,05,11,13,23.70
2008,08,05,11,14,23.90
2008,08,05,11,15,23.90
2008,08,05,11,16,23.90
2008,08,05,11,17,24.00
2008,08,05,11,18,24.10
2008,08,05,11,19,24.20
2008,08,05,11,20,24.40
2008,08,05,11,21,24.50
2008,08,05,11,22,24.70
2008,08,05,11,23,24.80
2008,08,05,11,24,25.00
2008,08,05,11,25,25.10
2008,08,05,11,26,25.20
2008,08,05,11,27,25.20
2008,08,05,11,28,25.10
2008,08,05,11,29,25.10
2008,08,05,11,30,25.10
2008,08,05,11,31,25.20
2008,08,05,11,32,25.20
2008,08,05,11,33,25.20
2008,08,05,11,34,25.30
2008,08,05,11,35,25.30
2008,08,05,11,36,25.30
2008,08,05,11,37,25.30
2008,08,05,11,38,25.30
2008,08,05,11,39,25.20
2008,08,05,11,40,25.20
2008,08,05,11,41,25.10
2008,08,05,11,42,25.10
2008,08,05,11,43,25.20
2008,08,05,11,44,25.20
2008,08,05,11,45,25.20
2008,08,05,11,46,25.30
2008,08,05,11,47,25.40
2008,08,05,11,48,25.50
2008,08,05,11,49,25.60
2008,08,05,11,50,25.70
2008,08,05,11,51,25.80
2008,08,05,11,52,25.90
2008,08,05,11,53,25.90
2008,08,05,11,54,26.00
2008,08,05,11,55,26.10
2008,08,05,11,56,26.00
2008,08,05,11,57,26.00
2008,08,05,11,58,26.00
2008,08,05,11,59,26.00
2008,08,05,12,00,26.00
2008,08,05,12,01,26.00
2008,08,05,12,02,26.10
2008,08,05,12,03,26.00
2008,08,05,12,04,25.70
2008,08,05,12,05,25.50
2008,08,05,12,06,25.30
2008,08,05,12,07,25.30
2008,08,05,12,08,25.20
2008,08,05,12,09,25.30
2008,08,05,12,10,25.10
2008,08,05,12,11,25.10
2008,08,05,12,12,25.10
2008,08,05,12,13,25.20
2008,08,05,12,14,25.30
2008,08,05,12,15,25.40
2008,08,05,12,16,25.50
2008,08,05,12,17,25.40
2008,08,05,12,18,25.40
2008,08,05,12,19,25.40
2008,08,05,12,20,25.30
2008,08,05,12,21,25.20
2008,08,05,12,22,25.00
2008,08,05,12,23,24.90
2008,08,05,12,24,24.80
2008,08,05,12,25,24.70
2008,08,05,12,26,24.70
2008,08,05,12,27,24.70
2008,08,05,12,28,24.80
2008,08,05,12,29,25.00
2008,08,05,12,30,25.00
2008,08,05,12,31,24.90
2008,08,05,12,32,24.80
2008,08,05,12,33,24.90
2008,08,05,12,34,24.90
2008,08,05,12,35,25.00
2008,08,05,12,36,25.10
2008,08,05,12,37,25.20
2008,08,05,12,38,25.40
2008,08,05,12,39,25.50
2008,08,05,12,40,25.50
2008,08,05,12,41,25.60
2008,08,05,12,42,25.70
2008,08,05,12,43,25.70
2008,08,05,12,44,25.70
2008,08,05,12,45,25.80
2008,08,05,12,46,25.90
2008,08,05,12,47,25.90
2008,08,05,12,48,25.90
2008,08,05,12,49,26.00
2008,08,05,12,50,26.20
2008,08,05,12,51,26.30
2008,08,05,12,52,26.40
2008,08,05,12,53,26.50
2008,08,05,12,54,26.40
2008,08,05,12,55,26.20
2008,08,05,12,56,26.20
2008,08,05,12,57,26.10
2008,08,05,12,58,26.10
2008,08,05,12,59,26.00
2008,08,05,13,00,25.90
2008,08,05,13,01,25.70
2008,08,05,13,02,25.40
2008,08,05,13,03,25.30
2008,08,05,13,04,25.10
2008,08,05,13,05,25.00
2008,08,05,13,06,25.00
2008,08,05,13,07,25.00
2008,08,05,13,08,24.90
2008,08,05,13,09,24.80
2008,08,05,13,10,24.60
2008,08,05,13,11,24.50
2008,08,05,13,12,24.60
2008,08,05,13,13,24.70
2008,08,05,13,14,24.80
2008,08,05,13,15,24.90
2008,08,05,13,16,24.90
2008,08,05,13,17,25.10
2008,08,05,13,18,25.20
2008,08,05,13,19,25.30
2008,08,05,13,20,25.20
2008,08,05,13,21,25.20
2008,08,05,13,22,25.20
2008,08,05,13,23,25.20
2008,08,05,13,24,25.20
2008,08,05,13,25,25.30
2008,08,05,13,26,25.30
2008,08,05,13,27,25.20
2008,08,05,13,28,25.20
2008,08,05,13,29,25.20
2008,08,05,13,30,25.10
2008,08,05,13,31,25.10
2008,08,05,13,32,25.00
2008,08,05,13,33,25.10
2008,08,05,13,34,25.10
2008,08,05,13,35,25.10
2008,08,05,13,36,25.10
2008,08,05,13,37,25.10
2008,08,05,13,38,25.30
2008,08,05,13,39,25.40
2008,08,05,13,40,25.50
2008,08,05,13,41,25.50
2008,08,05,13,42,25.60
2008,08,05,13,43,25.60
2008,08,05,13,44,25.70
2008,08,05,13,45,25.70
2008,08,05,13,46,25.70
2008,08,05,13,47,25.60
2008,08,05,13,48,25.50
2008,08,05,13,49,25.50
2008,08,05,13,50,25.40
2008,08,05,13,51,25.30
2008,08,05,13,52,25.40
2008,08,05,13,53,25.40
2008,08,05,13,54,25.30
2008,08,05,13,55,25.20
2008,08,05,13,56,25.20
2008,08,05,13,57,25.20
2008,08,05,13,58,25.30
2008,08,05,13,59,25.30
2008,08,05,14,00,25.30
2008,08,05,14,01,25.20
2008,08,05,14,02,25.10
2008,08,05,14,03,25.10
2008,08,05,14,04,25.10
2008,08,05,14,05,25.00
2008,08,05,14,06,25.00
2008,08,05,14,07,24.90
2008,08,05,14,08,24.80
2008,08,05,14,09,24.60
2008,08,05,14,10,24.60
2008,08,05,14,11,24.50
2008,08,05,14,12,24.40
2008,08,05,14,13,24.30
2008,08,05,14,14,24.10
2008,08,05,14,15,24.20
2008,08,05,14,16,24.20
2008,08,05,14,17,24.30
2008,08,05,14,18,24.30
2008,08,05,14,19,24.50
2008,08,05,14,20,24.50
2008,08,05,14,21,24.50
2008,08,05,14,22,24.50
2008,08,05,14,23,24.60
2008,08,05,14,24,24.70
2008,08,05,14,25,24.80
2008,08,05,14,26,24.80
2008,08,05,14,27,24.80
2008,08,05,14,28,24.90
2008,08,05,14,29,25.00
2008,08,05,14,30,25.10
2008,08,05,14,31,25.00
2008,08,05,14,32,25.00
2008,08,05,14,33,25.00
2008,08,05,14,34,25.00
2008,08,05,14,35,25.10
2008,08,05,14,36,25.30
2008,08,05,14,37,25.50
2008,08,05,14,38,25.70
2008,08,05,14,39,25.80
2008,08,05,14,40,25.70
2008,08,05,14,41,25.50
2008,08,05,14,42,25.60
2008,08,05,14,43,25.70
2008,08,05,14,44,25.80
2008,08,05,14,45,25.90
2008,08,05,14,46,25.90
2008,08,05,14,47,26.00
2008,08,05,14,48,26.00
2008,08,05,14,49,26.00
2008,08,05,14,50,25.90
2008,08,05,14,51,25.90
2008,08,05,14,52,25.80
2008,08,05,14,53,25.80
2008,08,05,14,54,25.80
2008,08,05,14,55,25.70
2008,08,05,14,56,25.70
2008,08,05,14,57,25.70
2008,08,05,14,58,25.70
2008,08,05,14,59,25.70
2008,08,05,15,00,25.70
2008,08,05,15,01,25.80
2008,08,05,15,02,25.90
2008,08,05,15,03,25.90
2008,08,05,15,04,25.90
2008,08,05,15,05,25.90
2008,08,05,15,06,25.80
2008,08,05,15,07,25.70
2008,08,05,15,08,25.70
2008,08,05,15,09,25.80
2008,08,05,15,10,25.80
2008,08,05,15,11,25.80
2008,08,05,15,12,25.80
2008,08,05,15,13,25.70
2008,08,05,15,14,25.50
2008,08,05,15,15,25.40
2008,08,05,15,16,25.40
2008,08,05,15,17,25.40
2008,08,05,15,18,25.40
2008,08,05,15,19,25.40
2008,08,05,15,20,25.40
2008,08,05,15,21,25.40
2008,08,05,15,22,25.30
2008,08,05,15,23,25.20
2008,08,05,15,24,25.20
2008,08,05,15,25,25.30
2008,08,05,15,26,25.40
2008,08,05,15,27,25.60
2008,08,05,15,28,25.60
2008,08,05,15,29,25.60
2008,08,05,15,30,25.50
2008,08,05,15,31,25.30
2008,08,05,15,32,25.30
2008,08,05,15,33,25.20
2008,08,05,15,34,25.30
2008,08,05,15,35,25.40
2008,08,05,15,36,25.40
2008,08,05,15,37,25.60
2008,08,05,15,38,25.80
2008,08,05,15,39,25.80
2008,08,05,15,40,25.90
2008,08,05,15,41,25.90
2008,08,05,15,42,25.90
2008,08,05,15,43,25.80
2008,08,05,15,44,25.70
2008,08,05,15,45,25.70
2008,08,05,15,46,25.70
2008,08,05,15,47,25.50
2008,08,05,15,48,25.40
2008,08,05,15,49,25.20
2008,08,05,15,50,25.20
2008,08,05,15,51,25.00
2008,08,05,15,52,24.90
2008,08,05,15,53,24.90
2008,08,05,15,54,25.00
2008,08,05,15,55,25.00
2008,08,05,15,56,25.10
2008,08,05,15,57,25.00
2008,08,05,15,58,25.00
2008,08,05,15,59,25.10
2008,08,05,16,00,25.30
2008,08,05,16,01,25.40
2008,08,05,16,02,25.50
2008,08,05,16,03,25.60
2008,08,05,16,04,25.60
2008,08,05,16,05,25.60
2008,08,05,16,06,25.60
2008,08,05,16,07,25.50
2008,08,05,16,08,25.40
2008,08,05,16,09,25.40
2008,08,05,16,10,25.40
2008,08,05,16,11,25.30
2008,08,05,16,12,25.10
2008,08,05,16,13,25.00
2008,08,05,16,14,25.00
2008,08,05,16,15,25.10
2008,08,05,16,16,25.30
2008,08,05,16,17,25.40
2008,08,05,16,18,25.40
2008,08,05,16,19,25.50
2008,08,05,16,20,25.50
2008,08,05,16,21,25.60
2008,08,05,16,22,25.70
2008,08,05,16,23,25.70
2008,08,05,16,24,25.60
2008,08,05,16,25,25.50
2008,08,05,16,26,25.40
2008,08,05,16,27,25.30
2008,08,05,16,28,25.30
2008,08,05,16,29,25.30
2008,08,05,16,30,25.30
2008,08,05,16,31,25.30
2008,08,05,16,32,25.30
2008,08,05,16,33,25.30
2008,08,05,16,34,25.20
2008,08,05,16,35,25.20
2008,08,05,16,36,25.20
2008,08,05,16,37,25.30
2008,08,05,16,38,25.40
2008,08,05,16,39,25.40
2008,08,05,16,40,25.40
2008,08,05,16,41,25.50
2008,08,05,16,42,25.50
2008,08,05,16,43,25.50
2008,08,05,16,44,25.50
2008,08,05,16,45,25.60
2008,08,05,16,46,25.50
2008,08,05,16,47,25.50
2008,08,05,16,48,25.50
2008,08,05,16,49,25.60
2008,08,05,16,50,25.70
2008,08,05,16,51,25.70
2008,08,05,16,52,25.70
2008,08,05,16,53,25.70
2008,08,05,16,54,25.80
2008,08,05,16,55,25.80
2008,08,05,16,56,25.80
2008,08,05,16,57,25.80
2008,08,05,16,58,25.80
2008,08,05,16,59,25.70
2008,08,05,17,00,25.70
2008,08,05,17,01,25.70
2008,08,05,17,02,25.70
2008,08,05,17,03,25.70
2008,08,05,17,04,25.80
2008,08,05,17,05,25.80
2008,08,05,17,06,25.80
2008,08,05,17,07,25.90
2008,08,05,17,08,25.90
2008,08,05,17,09,26.00
2008,08,05,17,10,26.00
2008,08,05,17,11,26.10
2008,08,05,17,12,26.10
2008,08,05,17,13,26.10
2008,08,05,17,14,26.10
2008,08,05,17,15,26.20
2008,08,05,17,16,26.30
2008,08,05,17,17,26.40
2008,08,05,17,18,26.40
2008,08,05,17,19,26.40